Flag for Germany Weather past 2 weeks in Ellwangen (Jagst), Baden-Württemberg, Germany

Now
45 °F

Overcast.


Feels Like: 40 °F
Forecast: 35 / 46 °F
Wind: 8 mph from West

Location: Stoetten

Current Time: Dec 22, 2014 at 4:25:18 PM

Latest Report: Dec 22, 2014 at 4:00 PM


Visibility: 47 mi

Pressure: 30.27 "Hg

Humidity: 73%

Dew point: 37 °F

Location of Ellwangen (Jagst)Location

Historic Weather in Ellwangen (Jagst) — Graph

°F

Ellwangen (Jagst) temperature yesterday

Maximum temperature yesterday: 37 °F (at 2:00 PM)
Minimum temperature yesterday: 32 °F (at 4:00 AM)
Average temperature yesterday: 35 °F

Past Weeks' High & Low Weather Summary

 TemperatureHumidityPressure
High49 °F (Dec 13, 3:00 PM)100% (Dec 7, 3:00 PM)30.56 "Hg (Dec 7, 3:00 PM)
Low27 °F (Dec 10, 4:00 AM)63% (Dec 12, 11:00 PM)29.78 "Hg (Dec 12, 8:00 PM)
Average38 °F90%30.12 "Hg
* Reported Dec 7 3:00 PM — Dec 22 3:00 PM, Ellwangen (Jagst), Weather by CustomWeather, © 2014

Note: Actual official high and low records may vary slightly from our data, if they occured in-between our weather recording intervals... More about our weather records

Advertising

Ellwangen (Jagst) weather history for previous 24 hours

 ConditionsComfort  
Time TempWeatherWind HumidityBarometerVisibility
3:00 PM
Dec 22
45 °FOvercast.12 mph73%30.27 "Hg47 mi
2:00 PM43 °FOvercast.9 mph75%30.30 "Hg47 mi
1:00 PM40 °FOvercast.9 mph79%30.32 "Hg47 mi
12:00 PM38 °FOvercast.10 mph82%30.35 "Hg47 mi
11:00 AM37 °FPassing clouds.10 mph86%30.36 "Hg34 mi
10:00 AM37 °FOvercast.12 mph88%30.37 "Hg47 mi
9:00 AM36 °FOvercast.15 mph87%30.37 "Hg40 mi
8:00 AM36 °FOvercast.13 mph84%30.37 "Hg40 mi
7:00 AM35 °FOvercast.9 mph84%30.38 "Hg40 mi
6:00 AM35 °FOvercast.13 mph85%30.38 "Hg34 mi
5:00 AM35 °FOvercast.14 mph86%30.39 "Hg28 mi
4:00 AM35 °FOvercast.14 mph84%30.40 "Hg31 mi
3:00 AM36 °FOvercast.14 mph83%30.41 "Hg34 mi
2:00 AM36 °FOvercast.12 mph84%30.43 "Hg31 mi
1:00 AM36 °FOvercast.12 mph81%30.42 "Hg34 mi
12:00 AM36 °FOvercast.13 mph81%30.43 "Hg34 mi
11:00 PM
Dec 21
36 °FOvercast.15 mph81%30.45 "Hg37 mi
10:00 PM36 °FOvercast.13 mph82%30.47 "Hg28 mi
9:00 PM36 °FOvercast.13 mph79%30.48 "Hg47 mi
8:00 PM36 °FOvercast.10 mph80%30.48 "Hg47 mi
7:00 PM36 °FOvercast.9 mph80%30.50 "Hg47 mi
6:00 PM36 °FOvercast.10 mph78%30.50 "Hg47 mi
5:00 PM36 °FOvercast.10 mph78%30.50 "Hg47 mi
4:00 PM37 °FOvercast.8 mph77%30.50 "Hg47 mi
Weather by CustomWeather, © 2014

See weather overviewHow to use our weather pages